St. Thomas, VI

12:02 AM AST on June 27, 2017 (GMT -0400)
King

Weather History for TIST - June, 2013

Change the Weather History Date:

Thursday, June 13, 2013

  Actual Average Record
Temperature  
Mean Temperature 85 °F 84 °F  
Max Temperature 90 °F 89 °F 95 °F (1995)
Min Temperature 79 °F 78 °F 70 °F (1984)
Degree Days  
Heating Degree Days 0 0  
Month to date heating degree days 0 0  
Since 1 June heating degree days 0 0  
Since 1 July heating degree days 0 0  
Cooling Degree Days 20 18  
Month to date cooling degree days 233 234  
Year to date cooling degree days 2429 2486  
Since 1 June cooling degree days 233 234  
Growing Degree Days 34 (Base 50)    
Moisture  
Dew Point 76 °F    
Average Humidity 82    
Maximum Humidity 100    
Minimum Humidity 63    
Precipitation  
Precipitation 0.03 in 0.08 in 0.43 in (2006)
Month to date precipitation 1.30 1.06  
Year to date precipitation 10.18 12.09  
Sea Level Pressure  
Sea Level Pressure 30.04 in    
Wind  
Wind Speed 14 mph (East)    
Max Wind Speed 18 mph    
Max Gust Speed 25 mph    
Visibility 10 miles    
Events Rain    
T = Trace of Precipitation, MM = Missing Value Source: NWS Daily Summary

Daily Weather History Graph

Daily Weather History Graph

Search for Another Location

Airport or City:

Trip Planner

Search our weather history database for the weather conditions in past years. The results will help you decide how hot, cold, wet, or windy it might be!

Date:

Astronomy

Jun. 13, 2013 Rise Set
Actual Time 5:43 AM AST 6:56 PM AST
Civil Twilight 5:19 AM AST 7:20 PM AST
Nautical Twilight 4:50 AM AST 7:49 PM AST
Astronomical Twilight 4:20 AM AST 8:19 PM AST
Moon 9:46 AM AST (6/13) 10:35 PM AST (6/13)
Length of Visible Light 14h 01m
Length of Day
13h 13m
Waxing Crescent, 21% of the Moon is Illuminated
Jun 13
Waxing Crescent
Jun 16
First Quarter
Jun 23
Full
Jun 30
Last Quarter
Jul 8
New

Hourly Weather History & Observations

Time (AST) Temp. Heat Index Dew Point Humidity Pressure Visibility Wind Dir Wind Speed Gust Speed Precip Events Conditions
8:53 AM 86.0 °F 95.1 °F 75.0 °F 70% 30.06 in 10.0 mi East 12.7 mph 19.6 mph N/A   Overcast
9:53 AM 86.0 °F 96.0 °F 75.9 °F 72% 30.07 in 10.0 mi East 16.1 mph 23.0 mph N/A   Overcast
10:01 AM 86.0 °F 95.1 °F 75.2 °F 70% 30.07 in 10.0 mi East 18.4 mph 21.9 mph N/A   Overcast
10:16 AM 87.8 °F 97.6 °F 75.2 °F 66% 30.07 in 10.0 mi ESE 15.0 mph - N/A   Overcast
10:53 AM 87.1 °F 95.4 °F 73.9 °F 65% 30.07 in 10.0 mi East 15.0 mph 21.9 mph N/A   Overcast
11:53 AM 87.1 °F 97.3 °F 75.9 °F 69% 30.06 in 10.0 mi East 15.0 mph 23.0 mph N/A   Overcast
12:41 PM 89.6 °F 102.2 °F 77.0 °F 66% 30.05 in 10.0 mi ENE 12.7 mph 24.2 mph N/A   Mostly Cloudy
12:50 PM 87.8 °F 97.6 °F 75.2 °F 66% 30.05 in 10.0 mi East 17.3 mph 25.3 mph N/A   Mostly Cloudy
12:53 PM 87.1 °F 97.3 °F 75.9 °F 69% 30.05 in 10.0 mi East 15.0 mph 25.3 mph N/A   Overcast
1:22 PM 89.6 °F 99.8 °F 75.2 °F 62% 30.04 in 10.0 mi East 13.8 mph 23.0 mph N/A   Overcast
1:31 PM 89.6 °F 99.8 °F 75.2 °F 62% 30.04 in 10.0 mi East 17.3 mph 24.2 mph N/A   Overcast
1:53 PM 89.1 °F 100.2 °F 75.9 °F 65% 30.04 in 10.0 mi East 13.8 mph 24.2 mph N/A   Overcast
2:03 PM 89.6 °F 99.8 °F 75.2 °F 62% 30.03 in 10.0 mi East 15.0 mph 25.3 mph N/A   Overcast
2:26 PM 89.6 °F 99.8 °F 75.2 °F 62% 30.02 in 10.0 mi East 12.7 mph 24.2 mph N/A   Overcast
2:45 PM 89.6 °F 102.2 °F 77.0 °F 66% 30.02 in 10.0 mi ESE 13.8 mph - N/A   Overcast
2:53 PM 88.0 °F 98.5 °F 75.9 °F 67% 30.02 in 10.0 mi ESE 15.0 mph - N/A   Overcast
3:53 PM 87.1 °F 98.8 °F 77.0 °F 72% 30.00 in 10.0 mi ESE 10.4 mph 19.6 mph 0.00 in   Overcast
4:53 PM 84.0 °F 92.6 °F 75.9 °F 76% 30.00 in 10.0 mi East 16.1 mph - 0.00 in   Overcast
5:53 PM 84.0 °F 92.6 °F 75.9 °F 76% 30.00 in 10.0 mi East 10.4 mph 19.6 mph N/A   Overcast
6:53 PM 82.9 °F 90.8 °F 75.9 °F 79% 30.01 in 10.0 mi ESE 10.4 mph - N/A   Overcast
7:25 PM 80.6 °F 86.2 °F 75.2 °F 84% 30.01 in 10.0 mi ESE 11.5 mph - 0.02 in Rain Light Rain
7:53 PM 79.0 °F - 78.1 °F 97% 30.03 in 10.0 mi East 15.0 mph 20.7 mph 0.03 in   Partly Cloudy